Weather History for Cullman Regional Airport, LA

Change the Weather History Date:

Friday, August 29, 2014

  Actual Average Record
Temperature  
Mean Temperature 76 °F -  
Max Temperature 91 °F - - ()
Min Temperature 60 °F - - ()
Cooling Degree Days 10    
Growing Degree Days 26 (Base 50)    
Moisture  
Dew Point 62 °F    
Average Humidity 62    
Maximum Humidity 96    
Minimum Humidity 35    
Precipitation  
Precipitation 0.00 in - - ()
Sea Level Pressure  
Sea Level Pressure 30.07 in    
Wind  
Wind Speed 3 mph (SSE)    
Max Wind Speed 9 mph    
Max Gust Speed 10 mph    
Visibility 10 miles    
Events      
T = Trace of Precipitation, MM = Missing Value Source: NWS Daily Summary

Daily Weather History Graph

Daily Weather History Graph

Search for Another Location

Airport:

Trip Planner

Search our weather history database for the weather conditions in past years. The results will help you decide how hot, cold, wet, or windy it might be!

Date:

Astronomy

Aug. 29, 2014 Rise Set
Actual Time 6:18 AM CDT 7:17 PM CDT
Civil Twilight 5:52 AM CDT 7:43 PM CDT
Nautical Twilight 5:22 AM CDT 8:13 PM CDT
Astronomical Twilight 4:50 AM CDT 8:44 PM CDT
Moon 9:55 AM CDT (8/29) 9:27 PM CDT (8/29)
Length of Visible Light 13h 50m
Length of Day
12h 58m
Waxing Crescent, 15% of the Moon is Illuminated
Aug 29
Waxing Crescent
Sep 2
First Quarter
Sep 8
Full
Sep 15
Last Quarter
Sep 24
New

Hourly Weather History & Observations

Time (CDT) Temp. Heat Index Dew Point Humidity Pressure Visibility Wind Dir Wind Speed Gust Speed Precip Events Conditions
12:15 AM 75.4 °F - 62.4 °F 64% 30.05 in 10.0 mi SSE 4.6 mph - N/A   Clear
12:35 AM 73.8 °F - 62.2 °F 67% 30.05 in 10.0 mi Calm Calm - N/A   Clear
12:55 AM 72.3 °F - 62.1 °F 70% 30.06 in 10.0 mi Calm Calm - N/A   Clear
1:15 AM 71.8 °F - 61.7 °F 70% 30.05 in 10.0 mi SSW 3.5 mph - N/A   Clear
1:35 AM 70.9 °F - 62.4 °F 75% 30.05 in 10.0 mi Calm Calm - N/A   Clear
1:55 AM 69.1 °F - 63.0 °F 81% 30.05 in 10.0 mi Calm Calm - N/A   Clear
2:15 AM 66.9 °F - 62.1 °F 84% 30.04 in 10.0 mi Calm Calm - N/A   Clear
2:35 AM 65.7 °F - 61.9 °F 88% 30.04 in 10.0 mi Calm Calm - N/A   Clear
2:55 AM 65.1 °F - 61.2 °F 87% 30.04 in 10.0 mi Calm Calm - N/A   Clear
3:15 AM 64.6 °F - 61.2 °F 89% 30.05 in 10.0 mi Calm Calm - N/A   Clear
3:35 AM 64.4 °F - 61.9 °F 92% 30.05 in 10.0 mi Calm Calm - N/A   Clear
3:55 AM 63.9 °F - 61.5 °F 92% 30.05 in 10.0 mi Calm Calm - N/A   Clear
4:15 AM 63.1 °F - 61.2 °F 93% 30.05 in 10.0 mi Calm Calm - N/A   Clear
4:35 AM 62.6 °F - 60.8 °F 94% 30.06 in 10.0 mi Calm Calm - N/A   Clear
4:55 AM 62.2 °F - 60.8 °F 95% 30.06 in 10.0 mi Calm Calm - N/A   Clear
5:15 AM 62.1 °F - 60.6 °F 95% 30.06 in 10.0 mi NE 4.6 mph - N/A   Clear
5:35 AM 61.7 °F - 60.1 °F 94% 30.06 in 10.0 mi Calm Calm - N/A   Clear
5:55 AM 61.3 °F - 59.7 °F 94% 30.07 in 10.0 mi NNE 3.5 mph - N/A   Clear
6:15 AM 60.6 °F - 59.5 °F 96% 30.07 in 10.0 mi NNE 3.5 mph - N/A   Clear
6:35 AM 60.6 °F - 59.4 °F 96% 30.08 in 10.0 mi NE 3.5 mph - N/A   Clear
6:55 AM 61.2 °F - 59.9 °F 96% 30.08 in 10.0 mi Calm Calm - N/A   Clear
7:15 AM 63.5 °F - 61.0 °F 91% 30.08 in 10.0 mi Calm Calm - N/A   Clear
7:35 AM 66.2 °F - 62.1 °F 86% 30.08 in 10.0 mi NNE 3.5 mph - N/A   Clear
7:55 AM 69.4 °F - 63.1 °F 80% 30.08 in 10.0 mi Calm Calm - N/A   Clear
8:15 AM 73.8 °F - 62.4 °F 68% 30.09 in 10.0 mi Calm Calm - N/A   Clear
8:35 AM 76.8 °F - 60.8 °F 58% 30.09 in 10.0 mi Calm Calm - N/A   Clear
8:55 AM 78.6 °F - 61.0 °F 55% 30.09 in 10.0 mi South 3.5 mph - N/A   Clear
9:15 AM 79.5 °F - 62.1 °F 55% 30.10 in 10.0 mi South 3.5 mph - N/A   Clear
9:35 AM 80.6 °F 81.8 °F 62.4 °F 54% 30.10 in 10.0 mi South 3.5 mph - N/A   Clear
9:55 AM 81.9 °F 82.9 °F 62.8 °F 52% 30.10 in 10.0 mi SSW 4.6 mph - N/A   Clear
10:15 AM 83.3 °F 84.3 °F 63.0 °F 50% 30.10 in 10.0 mi South 4.6 mph - N/A   Clear
10:35 AM 84.0 °F 84.7 °F 62.4 °F 48% 30.10 in 10.0 mi SE 3.5 mph - N/A   Clear
10:55 AM 84.6 °F 85.2 °F 62.2 °F 47% 30.10 in 10.0 mi SSW 4.6 mph - N/A   Clear
11:15 AM 85.3 °F 85.9 °F 62.4 °F 46% 30.10 in 10.0 mi South 4.6 mph - N/A   Clear
11:35 AM 86.0 °F 86.6 °F 62.6 °F 45% 30.10 in 10.0 mi South 5.8 mph - N/A   Clear
11:55 AM 86.4 °F 87.0 °F 63.0 °F 45% 30.09 in 10.0 mi SSW 6.9 mph - N/A   Clear
12:15 PM 86.7 °F 87.3 °F 62.4 °F 44% 30.10 in 10.0 mi SSE 8.1 mph - N/A   Clear
12:35 PM 86.5 °F 87.3 °F 62.8 °F 45% 30.09 in 10.0 mi South 5.8 mph - N/A   Clear
12:55 PM 87.8 °F 87.6 °F 61.0 °F 40% 30.09 in 10.0 mi SSE 6.9 mph - N/A   Clear
1:15 PM 89.1 °F 88.8 °F 60.6 °F 38% 30.08 in 10.0 mi SE 5.8 mph - N/A   Clear
1:35 PM 87.8 °F 87.6 °F 60.6 °F 40% 30.08 in 10.0 mi Calm Calm - N/A   Clear
1:55 PM 87.1 °F 87.0 °F 61.0 °F 41% 30.08 in 10.0 mi South 5.8 mph - N/A   Scattered Clouds
2:15 PM 88.9 °F 89.1 °F 61.9 °F 40% 30.07 in 10.0 mi South 6.9 mph - N/A   Clear
2:35 PM 89.1 °F 89.0 °F 61.2 °F 39% 30.06 in 10.0 mi Calm Calm - N/A   Clear
2:55 PM 89.2 °F 89.3 °F 61.0 °F 39% 30.05 in 10.0 mi Calm Calm - N/A   Scattered Clouds
3:15 PM 90.5 °F 90.4 °F 61.0 °F 37% 30.05 in 10.0 mi South 6.9 mph 10.4 mph N/A   Clear
3:35 PM 91.2 °F 90.8 °F 60.1 °F 35% 30.04 in 10.0 mi Calm Calm - N/A   Scattered Clouds
3:55 PM 91.4 °F 91.0 °F 60.4 °F 35% 30.03 in 10.0 mi SSW 8.1 mph - N/A   Clear
4:15 PM 90.7 °F 90.4 °F 60.6 °F 36% 30.03 in 10.0 mi South 9.2 mph - N/A   Clear
4:35 PM 88.5 °F 88.3 °F 60.6 °F 39% 30.03 in 10.0 mi SSW 6.9 mph - N/A   Clear
4:55 PM 90.3 °F 90.2 °F 61.0 °F 37% 30.04 in 10.0 mi South 6.9 mph - N/A   Clear
5:15 PM 89.6 °F 89.5 °F 61.0 °F 38% 30.04 in 10.0 mi South 8.1 mph - N/A   Scattered Clouds
5:35 PM 88.9 °F 89.1 °F 61.3 °F 40% 30.05 in 10.0 mi South 5.8 mph - N/A   Clear
5:55 PM 88.5 °F 88.6 °F 61.5 °F 40% 30.04 in 10.0 mi SSE 3.5 mph - N/A   Clear
6:15 PM 88.2 °F 88.7 °F 62.2 °F 42% 30.04 in 10.0 mi Calm Calm - N/A   Clear
6:35 PM 86.9 °F 87.8 °F 63.1 °F 45% 30.03 in 10.0 mi Calm Calm - N/A   Clear
6:55 PM 83.8 °F 85.8 °F 65.7 °F 54% 30.03 in 10.0 mi Calm Calm - N/A   Clear
7:15 PM 81.5 °F 83.9 °F 67.1 °F 61% 30.03 in 10.0 mi Calm Calm - N/A   Clear
7:35 PM 80.1 °F 82.2 °F 66.4 °F 63% 30.03 in 10.0 mi ESE 3.5 mph - N/A   Scattered Clouds
7:55 PM 79.0 °F - 66.7 °F 66% 30.04 in 10.0 mi Calm Calm - N/A   Scattered Clouds
8:15 PM 76.5 °F - 67.1 °F 73% 30.04 in 10.0 mi ESE 4.6 mph - N/A   Scattered Clouds
8:35 PM 79.7 °F - 64.2 °F 59% 30.05 in 10.0 mi SE 3.5 mph - N/A   Scattered Clouds
8:55 PM 79.9 °F - 64.2 °F 59% 30.06 in 10.0 mi ESE 3.5 mph - N/A   Scattered Clouds
9:15 PM 78.8 °F - 63.9 °F 60% 30.07 in 10.0 mi SE 4.6 mph - N/A   Clear
9:35 PM 79.5 °F - 62.4 °F 56% 30.08 in 10.0 mi SE 4.6 mph - N/A   Clear
9:55 PM 79.7 °F - 62.1 °F 55% 30.08 in 10.0 mi SE 3.5 mph - N/A   Clear
10:15 PM 79.5 °F - 61.9 °F 55% 30.08 in 10.0 mi SE 4.6 mph - N/A   Clear
10:35 PM 79.0 °F - 61.7 °F 55% 30.09 in 10.0 mi SE 4.6 mph - N/A   Clear
10:55 PM 78.6 °F - 61.9 °F 56% 30.10 in 10.0 mi SE 4.6 mph - N/A   Clear
11:15 PM 78.1 °F - 61.9 °F 57% 30.10 in 10.0 mi SE 4.6 mph - N/A   Scattered Clouds
11:35 PM 77.9 °F - 62.1 °F 58% 30.11 in 10.0 mi SSE 3.5 mph - N/A   Scattered Clouds
11:55 PM 75.4 °F - 62.6 °F 64% 30.11 in 10.0 mi Calm Calm - N/A   Clear